Location: Dillon
(41.1766°N, 107.0923°W)
Time: 08:01:27
(UTC+00:00)

QB50P2 - Pass Details

Date: 05 July 2022
Orbit: 590 x 605 km, 97.9° (Epoch: 17 August)

Event Time Altitude Azimuth Distance (km) Brightness Sun altitude
Rises 07:16:25 0° 35° (NE) 2,863 ? -26.0°
Reaches altitude 10° 07:19:55 10° 67° (ENE) 1,955 ? -26.0°
Enters shadow 07:21:24 12° 87° (E) 1,815 ? -26.0°
